Preview of NWS' New Version of Forecast
This preview is not operational and should not be used for support decisions.

Regional Weather Roundup (RWR)

Issued by National Weather Service (NWS)

                            
000
ASUS42 KTBW 170918
RWRFL 
FLORIDA REGIONAL WEATHER ROUNDUP
NATIONAL WEATHER SERVICE TAMPA BAY RUSKIN FL
500 AM EDT TUE SEP 17 2019

NOTE: "FAIR" INDICATES FEW OR NO CLOUDS BELOW 12,000 FEET WITH NO
SIGNIFICANT WEATHER AND/OR OBSTRUCTIONS TO VISIBILITY.

FLZ001>010-012>015-112-114-115-171000-
PANHANDLE FLORIDA
  
CITY           SKY/WX    TMP DP  RH WIND       PRES   REMARKS
PENSACOLA      FAIR      77  77 100 N7        29.97S                  
PENSACOLA NAS  FAIR      74  74 100 N3        29.96S                  
MILTON NAS     FAIR      73  72  96 NW3       29.97S                  
CRESTVIEW      FAIR      76  71  85 NW6       29.98S                  
DUKE FIELD     FAIR      75  75 100 NW5       29.96S                  
VALPARAISO     FAIR      77  73  90 NW3       29.95S                  
MARY ESTHER    CLEAR     77  74  92 N5        29.95S                  
TRI COUNTY     FAIR      72  70  93 CALM      29.96S                  
PANAMA CITY    FAIR      75  72  90 NW7       29.94F                  
TYNDALL AFB    FAIR      77  74  91 NW3       29.94S                  
APALACHICOLA   FAIR      75  72  90 N3        29.94S                  

STATION/POSITION SKY/WX   TEMP    WIND        PRES    WAVE   SWELL
                          AIR SEA DIR/SP/G            HT/PER HT/PER
                          (F)     (DEG/KT/KT) (MB)    (FT/S) (FT/S)
30.1N   87.6W              83 85  300/  6/  6 1014.8F   1/ 5   2/ 5
29.2N   88.2W              83     140/  2/  4 1014.9S   2/ 5   2/ 5
28.8N   86.0W                 85  340/  8/  8 1014.2S   1/ 4
PANAMA CITY BEAC           79 85  340/  7/ 10 1014.6
TOWER C                    82     330/ 13/ 13 1014.0F
28.5N   84.5W              83     330/ 10/ 12 1014.2F   1/ 3

$$
FLZ011-016>038-118-127-128-134-139-239-171000-
NORTH FLORIDA
  
CITY           SKY/WX    TMP DP  RH WIND       PRES   REMARKS
MARIANNA       FAIR      74  73  97 CALM      29.94S                  
TALLAHASSEE    FAIR      71  70  96 W3        29.94S                  
PERRY          FAIR      73  72  97 CALM      29.94S FOG              
LIVE OAK       CLEAR     68  68 100 CALM      29.92S FOG              
CROSS CITY     FAIR      75  74  98 NW6       29.93R                  
LAKE CITY      FAIR      70  68  94 CALM      29.92S                  
GAINESVILLE    FAIR      73  70  90 NW6       29.94S                  
WILLISTON      FAIR      71  69  95 CALM      29.92S                  
PALATKA        FAIR      66  64  94 CALM      29.92S                  
MAYPORT NAS    FAIR      77  72  84 CALM      29.90F                  
JACKSONVILLE   FAIR      72  69  90 CALM      29.90S                  
JAX NAS        FAIR      77  69  76 W6        29.91F                  
JAX CECIL      FAIR      66  66 100 CALM      29.91F                  
FERNANDINA BEA FAIR      72  70  93 CALM      29.91S                  
ST AUGUSTINE   FAIR     N/A N/A N/A W8        29.92S                  
PALM COAST     FAIR      71  69  95 CALM      29.91S                  

STATION/POSITION SKY/WX   TEMP    WIND        PRES    WAVE   SWELL
                          AIR SEA DIR/SP/G            HT/PER HT/PER
                          (F)     (DEG/KT/KT) (MB)    (FT/S) (FT/S)
SHELL POINT      NOT AVBL
KEATON BEACH               78     330/  4/  5 1013.6S
CEDAR KEY                  80      CALM  /  1 1013.4F
FERNANDINA                 81 84     CALM     1013.3F
30.7N   81.3W                 83                N/A     4/ 9   2/11
MAYPORT                    77 84  300/  4/  5 1013.0F
31.4N   80.9W              81 83  350/ 10/ 12 1012.1F   5/10   5/10
ST AUGUSTINE               75 83  290/  7/  9 1012.7F

$$
FLZ040-043>046-052-053-057-058-063-144-171000-
INTERIOR CENTRAL FLORIDA
  
CITY           SKY/WX    TMP DP  RH WIND       PRES   REMARKS
OCALA          FAIR      70  69  97 CALM      29.93S                  
LEESBURG       FAIR      76  70  82 CALM      29.93R                  
SANFORD        MOCLDY    73  70  90 NW6       29.90S                  
ORLANDO EXEC   FAIR      76  70  82 NW5       29.91S                  
ORLANDO INTL   FAIR      74  70  87 CALM      29.91S                  
KISSIMMEE      FAIR      74  72  93 NW3       29.92S                  
WINTER HAVEN   FAIR      77  71  82 W3        29.93R                  
BARTOW         FAIR      73  72  94 CALM      29.91S                  
SEBRING        FAIR      73  71  91 NW3       29.91S                  
OKEECHOBEE       N/A     72  70  94 NW3       29.89S                  

$$
FLZ041-047-054-059-064-141-147-171000-
EAST CENTRAL FLORIDA
  
CITY           SKY/WX    TMP DP  RH WIND       PRES   REMARKS
DAYTONA BEACH  FAIR      74  72  93 NW5       29.90S                  
DELAND         FAIR      73  70  88 NW5       29.91S                  
JFK SPACE CTR  CLEAR     75  75 100 NW3       29.88S                  
CAPE CANAVERAL FAIR      77  77  99 NW7       29.87F                  
PATRICK AFB    FAIR      78  78 100 NW8       29.88F                  
MELBOURNE      FAIR      73  71  93 W5        29.89S                  
VERO BEACH     FAIR      75  73  93 NW6       29.89S                  
FT PIERCE      FAIR      74  72  93 W5        29.89R                  
STUART         FAIR      75  72  88 W5        29.90R                  

STATION/POSITION SKY/WX   TEMP    WIND        PRES    WAVE   SWELL
                          AIR SEA DIR/SP/G            HT/PER HT/PER
                          (F)     (DEG/KT/KT) (MB)    (FT/S) (FT/S)
28.5N   80.2W              82 84  320/ 16/ 17 1011.8F   8/11   7/11
28.9N   78.5W              82 81  330/ 17/ 21 1009.8S  12/10   8/10
TRIDENT PIER               78 84  310/  4/  6 1013.3F
28.4N   80.5W                 83                N/A     3/10   2/11
27.5N   80.2W                 83                N/A     6/11   3/11

$$
FLZ050-056-061-142-242-148-248-149-249-151-251-155-255-
160-260-171000-
WEST CENTRAL FLORIDA
  
CITY           SKY/WX    TMP DP  RH WIND       PRES   REMARKS
CRYSTAL RIVER  FAIR      72  72 100 CALM      29.92S                  
INVERNESS      FAIR      72  72 100 CALM      29.93R                  
BROOKSVILLE    FOG       70  69  97 CALM      29.93S VSB 1/2          
CLEARWATER AIR FAIR      77  73  88 CALM      29.92S                  
ST PETE CLEARW FAIR      78  75  90 CALM      29.92S                  
TAMPA INTL     FAIR      78  74  87 CALM      29.92S                  
TAMPA EXEC     FAIR      72  72 100 CALM      29.93R FOG              
PLANT CITY     FAIR      75  75 100 CALM      29.94S                  
MACDILL AFB    FAIR      75  73  95 CALM      29.91S                  
PETER O KNIGHT CLOUDY   N/A N/A N/A CALM      29.92S                  
ST PETERSBURG  FAIR      81  77  88 CALM      29.90S                  
SARASOTA       FAIR      78  75  90 CALM      29.90S                  
VENICE         FAIR      77  75  94 CALM      29.92S                  

STATION/POSITION SKY/WX   TEMP    WIND        PRES    WAVE   SWELL
                          AIR SEA DIR/SP/G            HT/PER HT/PER
                          (F)     (DEG/KT/KT) (MB)    (FT/S) (FT/S)
27.3N   84.2W                 84                N/A     1/ 4
CLEARWATER BEACH           81 87  100/  3/  4 1013.3
MIDDLE TAMPA BAY           82      30/  3/  4 1013.2F
VENICE                     78 86   30/  2/  2 1013.1R

$$
FLZ066-069-070-075>078-162-262-165-265-171000-
SOUTHWEST FLORIDA AND KEYS
  
CITY           SKY/WX    TMP DP  RH WIND       PRES   REMARKS
PUNTA GORDA    FAIR      75  75 100 CALM      29.93S                  
FT MYERS       FAIR      78  74  87 CALM      29.90S                  
SOUTHWEST INTL FAIR      77  75  93 CALM      29.91R                  
NAPLES         FAIR      80  76  87 N3        29.90S                  
MARCO ISLAND   FAIR      79  76  90 N5        29.92R                  
IMMOKALEE      FAIR      75  73  94 CALM      29.89R FOG              
MARATHON       FAIR      83  76  79 N6        29.90R                  
KEY WEST NAS   MOCLDY    86  76  71 N9        29.91R HX  96           
KEY WEST INTL  MOCLDY    85  76  74 N9        29.91R                  

STATION/POSITION SKY/WX   TEMP    WIND        PRES    WAVE   SWELL
                          AIR SEA DIR/SP/G            HT/PER HT/PER
                          (F)     (DEG/KT/KT) (MB)    (FT/S) (FT/S)
NAPLES                     80 86   40/  2/  4 1012.5S
26.0N   85.6W              85 87  330/  4/  6 1014.3R   2/ 5   2/ 5
DRY TORTUGAS               84     330/  7/  9 1013.3R
SAND KEY                   85     350/  9/ 12 1011.8R
SOMBRERO KEY               84      10/ 10/ 12 1012.9R
LONG KEY                   84                 1011.5R

$$
FLZ067-068-071>074-168-172>174-171000-
SOUTHEAST FLORIDA 
  
CITY           SKY/WX    TMP DP  RH WIND       PRES   REMARKS
W PALM BEACH   FAIR      76  74  93 W6        29.89S                  
FT LAUDER-EXEC FAIR      78  75  90 NW3       29.89R                  
FT LAUDERDALE  FAIR      79  75  87 NW7       29.88S                  
POMPANO BEACH  FAIR      79  75  87 NW6       29.89R                  
PEMBROKE PINES FAIR      80  75  84 NW5       29.91R                  
OPA LOCKA      FAIR      80  76  87 N6        29.90R                  
MIAMI          FAIR      81  75  82 NW3       29.89S                  
WEST KENDALL   FAIR      80  76  87 N6        29.89S                  
HOMESTEAD      FAIR      79  75  89 NW3       29.89R                  

STATION/POSITION SKY/WX   TEMP    WIND        PRES    WAVE   SWELL
                          AIR SEA DIR/SP/G            HT/PER HT/PER
                          (F)     (DEG/KT/KT) (MB)    (FT/S) (FT/S)
VIRGINIA KEY               82 88  330/  3/  8 1011.6
LAKE WORTH                 77 85  290/  4/  6 1013.1R
FOWEY ROCKS                82 85  340/  9/ 10 1012.4R
SETTLEMENT POINT           83     340/ 11/ 13 1011.2S

$$